Regional Weather Roundup
Issued by NWS

Home | Current Version | Previous Version | Text Only | Print | Product List | Glossary On
Versions: 1 2 3 4 5 6 7 8 9 10 11 12 13 14 15 16 17 18 19 20 21 22 23 24 25 26 27 28 29 30 31 32 33 34 35 36 37 38 39 40 41 42 43 44 45 46 47 48 49 50
000
ASUS43 KLSX 191207
RWRMO

WEATHER SUMMARY FOR MISSOURI
NATIONAL WEATHER SERVICE SPRINGFIELD MO
700 AM CDT SAT AUG 19 2017

NOTE: "FAIR" INDICATES FEW OR NO CLOUDS BELOW 12,000 FEET WITH NO
       SIGNIFICANT WEATHER AND/OR OBSTRUCTIONS TO VISIBILITY.
       CURRENT SKY AND/OR WEATHER CONDITIONS ARE NOT AVAILABLE FOR
       CHILLICOTHE AND FARMINGTON.

MOZ001>031-035>038-043-044-053-054-191300-
...NORTHERN AND WESTERN MISSOURI...

CITY           SKY/WX    TMP DP  RH WIND       PRES   REMARKS
KANSAS CTY INT CLEAR     66  65  96 CALM      29.96R
6HR MIN TEMP:  65; 6HR MAX TEMP:  70;

KANSAS C DTWN  CLEAR     70  69  97 NW3       29.95R
6HR MIN TEMP:  69; 6HR MAX TEMP:  75;

LEE`S SUMMIT   CLEAR     68  68 100 SW5       29.96R
6HR MIN TEMP:  68; 6HR MAX TEMP:  74;

ST JOSEPH      FOG       62  62 100 CALM      29.95R VSB<1/4
6HR MIN TEMP:  60; 6HR MAX TEMP:  65;

CHILLICOTHE      N/A     61  61 100 CALM      29.95R
6HR MIN TEMP:  61; 6HR MAX TEMP:  66;

KIRKSVILLE     FOG       62  61  96 CALM      29.96R VSB<1/4
6HR MIN TEMP:  60; 6HR MAX TEMP:  68;


$$
MOZ066>068-077>081-088>096-101>105-191300-
...SOUTHWEST MISSOURI...

CITY           SKY/WX    TMP DP  RH WIND       PRES   REMARKS
SPRINGFIELD    CLEAR     69  69 100 S5        29.98R
6HR MIN TEMP:  67; 6HR MAX TEMP:  69;

JOPLIN         CLOUDY    75  74  96 S6        29.98R
6HR MIN TEMP:  70; 6HR MAX TEMP:  75;

BRANSON        PTCLDY    70  68  94 SW5       30.01S

$$
MOZ032>034-039>042-045>050-055>058-069>072-191300-
...CENTRAL MISSOURI...

CITY           SKY/WX    TMP DP  RH WIND       PRES   REMARKS
COLUMBIA       CLEAR     68  66  93 W3        29.95R
6HR MIN TEMP:  67; 6HR MAX TEMP:  71;

JEFFERSON CITY CLEAR     70  69  97 CALM      29.94R
6HR MIN TEMP:  68; 6HR MAX TEMP:  74;

ROLLA          CLEAR     67  67 100 SW7       29.97R
6HR MIN TEMP:  66; 6HR MAX TEMP:  71; 6HR PCP: TRACE;

SEDALIA        CLEAR     70  70 100 SW7       29.96R
6HR MIN TEMP:  69; 6HR MAX TEMP:  71;

WHITEMAN AFB   CLEAR     67  67 100 SW6       29.94R
WARRENSBURG    CLEAR     66  64  94 CALM      29.94R FOG
OSAGE BEACH    CLEAR     66  66 100 S3        29.97R

$$
MOZ051-052-059>065-191300-
...EAST CENTRAL MISSOURI...

CITY           SKY/WX    TMP DP  RH WIND       PRES   REMARKS
ST LOUIS INTL  PTCLDY    71  68  90 SW5       29.95R
6HR MIN TEMP:  70; 6HR MAX TEMP:  75;

SPIRIT OF STL  PTCLDY    68  67  96 CALM      29.94R
6HR MIN TEMP:  67; 6HR MAX TEMP:  73;

ST CHARLES     CLEAR     68  67  96 SW7       29.93R
6HR MIN TEMP:  65; 6HR MAX TEMP:  73;


$$
MOZ072>076-082>087-097>100-106>115-191300-
...SOUTH CENTRAL AND SOUTHEAST MISSOURI...

CITY           SKY/WX    TMP DP  RH WIND       PRES   REMARKS
CAPE GIRARDEAU CLEAR     68  66  93 S5        29.94S
6HR MIN TEMP:  66; 6HR MAX TEMP:  71;

FARMINGTON     CLEAR     67  66  97 CALM      29.98R
6HR MIN TEMP:  67; 6HR MAX TEMP:  72;

POPLAR BLUFF   CLEAR     68  68 100 CALM      29.95R FOG
6HR MIN TEMP:  67; 6HR MAX TEMP:  71;

WEST PLAINS    CLEAR     68  66  93 W6        30.01R
6HR MIN TEMP:  68; 6HR MAX TEMP:  70;


$$


USA.gov is the U.S. government's official web portal to all federal, state and local government web resources and services.